Location: Cisewo
(53.3833°N, 14.9000°E)
Time: 13:53:02
(UTC+00:00)

Terra - Pass Details

Date: 18 April 2021
Orbit: 701 x 703 km, 98.2° (Epoch: 16 May)

Event Time Altitude Azimuth Distance (km) Brightness Sun altitude
Exits shadow 21:28:59 31° 224° (SW) 1,229 2.8 -22.6°
Maximum altitude 21:30:26 39° 263° (W) 1,062 2.8 -22.7°
Drops below altitude 10° 21:34:54 10° 332° (NNW) 2,184 5.5 -23.0°
Sets 21:37:19 0° 341° (NNW) 3,107 6.6 -23.1°
